sat.trackr.live / text

‹ back to catalog

STARLINK-34481

NORAD 65104 · 2025-167AC

PAYLOAD ACTIVE UNKNOWN

§ Identity

Operator
Country
US
Launch date
2025-08-04
Launch site
AFETR
Launch vehicle
Mass (kg)
RCS (m²)

Purposes: comms

External: N2YO · Heavens-Above · Gunter

§ Orbital elements

Epoch: 2026-05-25T01:35:36.792384Z

Period
93.37 min
Inclination
53.1607°
Eccentricity
0.0000748
Mean motion
15.42230112 rev/d
Perigee alt
439.0 km
Apogee alt
440.0 km
Semi-major
6,817.7 km
B*
1.4772e-3
RAAN
29.0391°
Arg perigee
99.9951°
Mean anomaly
260.1140°
Rev number
4,520

§ Raw data

STARLINK-344811 65104U 25167AC  26145.06639806  .00064563  00000+0  14772-2 0  99992 65104  53.1607  29.0391 0000748  99.9951 260.1140 15.42230112 45201

JSON: /api/v1/satellites/65104 · /tle

For live sub-satellite position, see the globe view (requires WebGL).

§ Visibility from observer

Set your observer location to see the next 7 days of passes ≥ 10°. The values pass through the URL so the page stays shareable.

No JS? Fill the form by hand. The geolocation button needs JavaScript.